Погода в Ангулеме

Франция     45°39′03″N   0°10′01″E
темп.,
°C
ветер,
м/с
пор.,
м/с
влажн.,
%
обл.,
%
осадки,
мм/ч
давл.,
гПа
погр.,
м
11 мая, вт
вт1123:00+10с2284100 0.0 100924
02:00+8ссз119278 0.1 100914
05:00+8з2497100 1.3 1010121
08:00+9зсз3896100 2.4 1011533
11:00+12з5781100 1.3 10131050
14:00+14з796056 2.3 10151885
17:00+14з895759 0.3 10161920
20:00+12з59775 1.0 1017915
12 мая, ср
ср1223:00+8ююз3490100 0.0 101870
02:00+7ю3594100 0.0 1017115
05:00+6ююв3496100 0.0 101581
08:00+8ююв4987100 0.0 1014272
11:00+10ююв5882100 0.3 1013473
14:00+15ююз686086 0.4 10111395
17:00+15юз476999 0.8 10101006
20:00+11з101694100 4.6 10111113
13 мая, чт
чт1323:00+7зюз4119375 0.4 1015411
02:00+5ююз3895100 0.4 1015163
05:00+9юз41097100 0.8 1014548
08:00+9юз499519 2.0 1014476
11:00+13зюз687942 1.4 10131190
14:00+16зюз67515 1.9 10121831
17:00+16з685628 0.1 10101850
20:00+13зюз488135 0.8 1011456
14 мая, пт
пт1423:00+7з229271 0.1 101233
02:00+6ююз2296100 0.3 101237
05:00+8зюз2596100 0.1 1012189
08:00+9зсз259198 0.1 1014236
11:00+11зюз25829 0.1 1015574
14:00+13з577793 1.9 10141394
17:00+14з697595 1.6 10141487
20:00+12з6975100 1.9 1016875
15 мая, сб
сб1523:00+8юз3494100 0.0 101781
02:00+8ююз3594100 0.0 1016132
05:00+9ююв3892100 0.0 1013269
08:00+8ю61195100 3.3 1012624
11:00+8ююв71397100 6.3 1011567
14:00+10ю61598100 8.2 1010807
17:00+13юз71398100 2.0 1010873
20:00+14зюз51197100 2.3 1011815